Weather Roundup
Issued by NWS Chicago, IL

Home | Current Version | Previous Version | Graphics & Text | Print | Product List | Glossary On
Versions: 1 2 3 4 5 6 7 8 9 10 11 12 13 14 15 16 17 18 19 20 21 22 23 24 25 26 27 28 29 30 31 32 33 34 35 36 37 38 39 40 41 42 43 44 45 46 47 48 49 50
000
NZUS59 KLOT 191306
HRRLOT

CHICAGO AREA WEATHER ROUNDUP
NATIONAL WEATHER SERVICE CHICAGO/ROMEOVILLE IL
800 AM CDT SAT APR 19 2014

NOTE: "FAIR" INDICATES FEW OR NO CLOUDS BELOW 12,000 FEET WITH NO
SIGNIFICANT WEATHER AND/OR OBSTRUCTIONS TO VISIBILITY.

* THESE STATIONS ARE NOT UNDER NWS QUALITY CONTROL. THEY ALSO MAY NOT
  REPORT WEATHER SUCH AS PRECIPITATION OR FOG.

ILZ005-006-012>014-019>023-191400-
NORTHEAST ILLINOIS

CITY           SKY/WX    TMP DP  RH WIND       PRES   REMARKS
OHARE          MOSUNNY   41  29  62 E12       30.38R
MIDWAY         MOSUNNY   42  33  70 E10       30.38R
AURORA         SUNNY     42  32  67 E12       30.36S
LANSING*       SUNNY     43  35  73 E9        30.38R
WAUKEGAN       SUNNY     36  30  79 NE13      30.39S
DUPAGE AIRPORT SUNNY     41  31  67 E14       30.36S
WHEELING       SUNNY     40  31  70 E10       30.40S
KANKAKEE*      SUNNY     42  34  72 E10       30.36R
MORRIS*        SUNNY     43  31  63 E8        30.35S
NORTHERLY IS     N/A     40  33  76 NE13        N/A
$$

WIZ051-052-058>065-066-070>072-191400-
SOUTHEAST WISCONSIN

CITY           SKY/WX    TMP DP  RH WIND       PRES   REMARKS
MILWAUKEE      MOSUNNY   36  29  75 E12       30.43S
KENOSHA*       SUNNY     37  30  75 E15       30.40S
RACINE*        SUNNY     37  30  75 E12       30.43S
BURLINGTON     SUNNY     35  29  80 E10       30.39S WCI  27
WAUKESHA       MOSUNNY   34  28  80 E9        30.41S WCI  26
$$

INZ001>003-010>013-019-020-191400-
NORTHWEST INDIANA

CITY           SKY/WX    TMP DP  RH WIND       PRES   REMARKS
GARY*          SUNNY     43  36  75 NE9       30.39R
MICHIGAN CITY* NOT AVBL
RENSSELAER*    NOT AVBL
VALPARAISO     SUNNY     41  35  79 E14       30.37S
$$

LMZ740>746-191400-
SOUTHERN LAKE MICHIGAN

STATION/POSITION TIME  SKY/WX   TEMP WIND        PRES    VSBY
                                AIR  DIR/SP/G
                 (UTC)          (F)  (DEG/KT/KT) (MB)    (MI)
HARRISON CRIB    1300            37   70/ 16/ 18   N/A
BURNHAM HARBOR   1300            40   60/  9/ 13   N/A
CALUMET HARBOR   1300            40   40/ 10/ 13 1029.6R
BURNS HARBOR     NOT AVBL
MICHIGAN CITY    1300            40   60/  7/  9   N/A
$$

ABBREVIATIONS USED IN REMARKS
   TC - TEMPERATURE IN CELSIUS
  WCI - WIND CHILL INDEX
   HX - HEAT INDEX
  VSB - VISIBILITY
$$



USA.gov is the U.S. government's official web portal to all federal, state and local government web resources and services.